Location: Glencliff
(36.1226°N, 86.7183°W)
Time: 21:22:07
(UTC+00:00)

Cosmos 921 Rocket - Pass Details

Date: 25 August 2019
Orbit: 572 x 632 km, 75.8° (Epoch: 14 October)

Event Time Altitude Azimuth Distance (km) Brightness Sun altitude
Exits shadow 09:55:33 27° 228° (SW) 1,143 3.9 -15.5°
Maximum altitude 09:57:32 48° 288° (WNW) 776 3.2 -15.1°
Drops below altitude 10° 10:01:43 10° 3° (N) 1,942 6.0 -14.4°
Sets 10:04:03 0° 10° (N) 2,859 7.0 -13.9°
